Location: Peebles
(55.6412°N, 3.1714°W)
Time: 12:58:06
(UTC+00:00)

RS-15 - Pass Details

Date: 06 December 2023
Orbit: 1893 x 2151 km, 64.8° (Epoch: 02 March)

Event Time Altitude Azimuth Distance (km) Brightness Sun altitude
Rises 18:34:41 0° 161° (SSE) 5,651 10.3 -22.7°
Reaches altitude 10° 18:39:02 10° 149° (SSE) 4,634 9.7 -23.3°
Enters shadow 18:44:30 22° 124° (SE) 3,702 9.0 -24.1°
